Theta_e
326 324 324 326 323 323 321 321 324 323 322 322 321 321 322 319 317 318 317 317 318 316
326 325 324 326 327 324 325 322 323 322 322 322 322 322 323 318 318 318 319 317 318 315
325 324 325 326 325 326 326 325 324 322 322 322 322 323 323 319 320 320 316 315 317 317
325 325 325 324 324 324 328 327 323 322 321 321 321 323 321 321 320 319 319 318 316 317
325 325 325 325 325 328 326 327 325 322 321 320 320 322 322 319 320 318 317 317 316 316
325 325 326 326 326 325 326 326 326 324 322 320 320 320 322 320 319 319 319 319 317 316
324 325 326 326 326 325 326 326 325 325 323 323 322 321 320 320 320 320 320 321 320 319
325 325 326 325 325 325 325 325 326 324 323 325 323 319 322 321 319 319 319 321 320 321
323 323 324 325 325 325 325 325 325 325 323 322 322 313 311 316 322 320 319 319 321 322
323 322 323 324 324 324 328 329 327 325 325 326 328 313 309 310 322 322 321 321 322 321
322 322 323 324 325 326 328 329 329 327 327 328 326 311 308 308 323 323 323 324 324 324
322 322 322 323 326 329 329 329 329 328 329 329 329 314 307 311 325 322 323 323 324 324
323 324 323 325 329 331 330 328 326 328 330 325 329 316 308 311 324 322 320 325 325 313
325 326 326 330 331 331 330 329 330 329 330 332 329 330 311 305 324 320 317 316 317 319
Wind_Speed
4 6 7 7 6 7 6 6 6 6 7 7 8 8 9 6 6 6 7 7 8 9
2 4 5 3 6 5 5 7 7 6 6 7 8 9 11 7 7 5 6 6 9 8
2 3 4 5 2 5 6 7 7 7 7 7 6 3 8 7 8 6 6 6 6 7
4 4 4 6 5 3 5 5 8 6 7 8 8 4 4 8 7 7 7 6 8 6
5 5 5 6 7 4 6 5 5 7 7 8 8 6 4 6 7 6 7 9 7 7
7 7 7 6 6 8 7 5 5 5 8 8 9 9 6 6 6 8 9 7 8 7
5 6 7 6 7 8 6 6 5 5 5 7 9 9 9 10 9 11 10 8 9 8
5 6 6 6 7 7 8 8 6 6 6 8 7 7 9 10 11 11 13 12 10 9
5 5 6 6 7 9 9 9 10 10 9 8 9 2 8 9 11 12 13 13 11 12
6 7 7 7 8 9 9 8 10 11 12 11 10 11 10 12 11 12 13 14 13 11
7 8 7 8 8 8 9 9 9 12 12 12 12 11 11 11 11 12 14 14 14 13
7 8 8 9 9 8 9 9 10 11 12 13 13 12 10 9 11 13 13 13 11 12
7 8 9 9 9 9 9 11 12 13 13 14 14 14 14 12 9 12 10 12 9 14
8 8 9 9 9 10 11 12 13 14 13 15 16 17 16 15 11 10 10 10 10 8
Wind_Direction
345 330 294 33 346 322 336 2 1 347 352 356 4 4 343 32 10 359 338 348 354 323
305 322 342 326 309 326 336 331 6 334 335 338 355 1 340 6 13 346 334 339 2 341
304 273 322 301 270 314 313 317 324 321 320 318 336 346 348 339 340 354 346 347 348 335
264 289 297 309 313 303 305 293 313 319 308 306 307 333 331 315 287 332 321 350 1 338
245 270 281 292 303 261 269 272 297 301 302 295 302 315 303 303 308 310 321 326 341 330
227 247 262 278 289 300 299 293 267 286 295 299 305 298 289 290 294 323 317 303 319 321
260 261 268 277 278 283 275 283 286 279 277 290 287 294 298 286 310 314 314 311 305 297
257 255 255 265 273 277 282 282 281 281 285 267 290 273 302 302 298 297 297 303 295 277
264 262 254 261 263 267 270 278 284 289 287 286 286 278 215 253 280 283 287 291 294 297
257 251 259 262 264 269 272 277 280 282 283 284 292 277 234 225 264 274 275 283 287 286
262 259 261 265 270 276 278 278 275 278 280 279 279 274 241 228 258 275 274 273 282 284
270 274 275 277 280 282 281 280 278 275 272 273 274 269 243 225 276 273 277 279 264 266
284 287 287 286 286 282 276 275 271 271 270 274 279 267 254 217 261 269 276 281 275 227
272 277 275 272 266 269 268 269 271 273 275 276 271 268 247 210 238 258 271 286 305 296